Regional Weather Roundup
Issued by NWS

Home | Current Version | Previous Version | Text Only | Print | Product List | Glossary Off
Versions: 1 2 3 4 5 6 7 8 9 10 11 12 13 14 15 16 17 18 19 20 21 22 23 24 25 26 27 28 29 30 31 32 33 34 35 36 37 38 39 40 41 42 43 44 45 46 47 48 49 50

000
ASUS43 KDMX 050603
RWRIA

WEATHER ROUNDUP FOR IOWA
NATIONAL WEATHER SERVICE DES MOINES IA
100 AM CDT THU MAY 05 2016

NOTE: "FAIR" INDICATES FEW OR NO CLOUDS BELOW 12,000 FEET WITH NO
SIGNIFICANT WEATHER AND/OR OBSTRUCTIONS TO VISIBILITY.

* - THESE STATIONS ARE NOT NWS STATIONS...THUS NOT UNDER NWS
QUALITY CONTROL.  THEY ALSO DO NOT REPORT WEATHER SUCH
AS PRECIPITATION OR FOG.

IAZ001>003-012>014-020>022-031>034-043>046-050700-
   NORTHWEST IOWA

CITY           SKY/WX    TMP DP  RH WIND       PRES   REMARKS
CARROLL *      PTCLDY    50  37  62 NW5       30.00S
CHEROKEE *     PTCLDY    44  40  84 CALM      30.02R
DENISON *      CLEAR     46  39  76 CALM      30.00S
LE MARS *      CLEAR     46  41  81 CALM      30.04R
ORANGE CITY *  CLEAR     52  36  54 CALM      30.02S
SHELDON *      CLEAR     46  36  66 CALM      30.01S
SIOUX CITY     CLEAR     45  38  76 W7        30.03R
6HR MIN TEMP:  44; 6HR MAX TEMP:  66;

SPENCER        CLEAR     45  38  76 NW6       30.01S
6HR MIN TEMP:  42; 6HR MAX TEMP:  66;

STORM LAKE *   CLEAR     50  36  57 N8        30.02S
$$

IAZ055>058-069>071-079>083-090>094-050700-
   SOUTHWEST IOWA

CITY           SKY/WX    TMP DP  RH WIND       PRES   REMARKS
ATLANTIC *     CLEAR     52  41  66 NW5       30.01S
AUDUBON *      CLEAR     45  37  76 CALM      30.01S
CLARINDA *       N/A     46  43  87 MISG      30.03S
COUNCIL BLFS * CLEAR     55  39  54 NW5       30.02S
CRESTON *      CLEAR     50  39  66 NW7       30.01S
HARLAN  *      CLEAR     46  41  81 CALM      30.05S
LAMONI         CLEAR     47  40  76 NW9       29.98R
6HR MIN TEMP:  47; 6HR MAX TEMP:  63;

RED OAK *      CLEAR     50  41  71 N3        30.02R
SHENANDOAH *   CLEAR     52  41  66 SW5       30.02S
$$

IAZ047>049-059>061-072>074-084-050700-
   CENTRAL IOWA

CITY           SKY/WX    TMP DP  RH WIND       PRES   REMARKS
AMES           CLEAR     48  36  63 N3        29.99R
6HR MIN TEMP:  48; 6HR MAX TEMP:  66;

ANKENY *       CLEAR     46  39  76 CALM      29.99R
BOONE *        CLEAR     48  36  61 N5        29.99R
CHARITON *     CLEAR     50  37  62 N6        29.98R
DES MOINES     CLEAR     54  34  46 N6        29.99R
6HR MIN TEMP:  54; 6HR MAX TEMP:  67;

GRINNELL*      CLEAR     47  32  56 N6        29.98R
KNOXVILLE *    CLEAR     50  36  57 N6        29.97R
MARSHALLTOWN   CLEAR     45  31  58 N7        29.97R
6HR MIN TEMP:  42; 6HR MAX TEMP:  65;

NEWTON *       CLEAR     50  32  50 N7        29.97R
PELLA *        CLEAR     47  35  62 N3        29.99R
PERRY *          N/A     50  39  66 N5        30.00R
$$

IAZ004>006-015-016-023>025-035-036-050700-
   NORTH CENTRAL IOWA

CITY           SKY/WX    TMP DP  RH WIND       PRES   REMARKS
ALGONA *       CLEAR     50  34  53 NW5       30.01S
CLARION *      CLEAR     43  30  61 CALM      30.00R
ESTHERVILLE    CLEAR     42  37  82 NW7       30.01R
6HR MIN TEMP:  42; 6HR MAX TEMP:  65;

MASON CITY     CLEAR     43  28  55 CALM      30.00S
6HR MIN TEMP:  39; 6HR MAX TEMP:  64;

FOREST CITY *  CLEAR     39  30  70 CALM      30.00R
WEBSTER CITY * CLEAR     45  32  61 NW5       29.98S
IOWA FALLS *     N/A     43  32  65 CALM      30.00R
$$

IAZ007>011-017>019-026>030-037>042-050>054-066-050700-
   NORTHEAST IOWA

CITY           SKY/WX    TMP DP  RH WIND       PRES   REMARKS
CEDAR RAPIDS   CLEAR     46  34  62 N6        29.96R
6HR MIN TEMP:  45; 6HR MAX TEMP:  63;

CHARLES CITY * CLEAR     46  28  49 NE7       30.00R
CLINTON *      PTCLDY    42  36  79 N8        29.94R
DECORAH *      CLEAR     48  25  40 NE3       29.98R
DUBUQUE        CLEAR     46  32  58 N9        29.95R
6HR MIN TEMP:  45; 6HR MAX TEMP:  59;

MONTICELLO *   CLEAR     41  32  70 CALM      29.95R
OELWEIN *      CLEAR     48  28  46 N9        29.98S
WATERLOO       CLEAR     43  31  62 NE5       29.98R
6HR MIN TEMP:  40; 6HR MAX TEMP:  63;

$$

IAZ064-065-067-068-078-050700-
   EAST CENTRAL IOWA

CITY           SKY/WX    TMP DP  RH WIND       PRES   REMARKS
DAVENPORT      CLEAR     45  34  65 NE9       29.94R
6HR MIN TEMP:  45; 6HR MAX TEMP:  61;

IOWA CITY      CLEAR     50  32  50 N7        29.97R
6HR MIN TEMP:  47; 6HR MAX TEMP:  64;

MT. PLEASANT * CLEAR     50  37  62 N9        29.94R
MUSCATINE *    CLEAR     50  32  50 N6        29.95R
QUAD CITIES    CLEAR     51  34  52 NE6       29.92R
6HR MIN TEMP:  51; 6HR MAX TEMP:  62;

$$

IAZ062-063-075>077-085>089-095>099-050700-
   SOUTHEAST IOWA

CITY           SKY/WX    TMP DP  RH WIND       PRES   REMARKS
BURLINGTON     CLEAR     50  35  56 N10       29.92R
6HR MIN TEMP:  50; 6HR MAX TEMP:  62;

FAIRFIELD *    CLEAR     45  34  65 NW8       29.95R
FORT MADISON * CLEAR     48  37  66 NW6       29.93S
KEOKUK *       CLEAR     50  36  57 CALM      29.92S
OSKALOOSA *      N/A     45  34  65 N7        29.97R
OTTUMWA        CLEAR     43  34  70 NW6       29.96R
6HR MIN TEMP:  43; 6HR MAX TEMP:  63;

WASHINGTON *   CLEAR     48  36  61 N12       29.96R
$$

ABBREVIATIONS USED IN REMARKS
   TC - TEMPERATURES IN CELSIUS
  WCI - WIND CHILL INDEX
   HX - HEAT INDEX
  VSB - VISIBILITY
$$




USA.gov is the U.S. government's official web portal to all federal, state and local government web resources and services.